Clermont County, Batavia, OH

3:42 AM EDT on June 24, 2017 (GMT -0400)
Clermont County, Batavia

Weather History for KI69 - January, 2014

Change the Weather History Date:

Monday, January 20, 2014

  Actual Average (KLUK) Record (KLUK)
Temperature  
Mean Temperature 38 °F -  
Max Temperature 44 °F 37 °F 63 °F (1951)
Min Temperature 33 °F 23 °F -19 °F (1985)
Degree Days  
Heating Degree Days 26    
Moisture  
Dew Point 28 °F    
Average Humidity 67    
Maximum Humidity 87    
Minimum Humidity 57    
Precipitation  
Precipitation 0.00 in - - ()
Sea Level Pressure  
Sea Level Pressure 29.82 in    
Wind  
Wind Speed 10 mph (West)    
Max Wind Speed 16 mph    
Max Gust Speed 25 mph    
Visibility 10 miles    
Events Snow    
Averages and records for this station are not official NWS values.
T = Trace of Precipitation, MM = Missing Value Source: NWS Daily Summary

Daily Weather History Graph

Daily Weather History Graph

Search for Another Location

Airport or City:

Trip Planner

Search our weather history database for the weather conditions in past years. The results will help you decide how hot, cold, wet, or windy it might be!

Date:

Astronomy

Jan. 20, 2014 Rise Set
Actual Time 7:52 AM EST 5:44 PM EST
Civil Twilight 7:23 AM EST 6:13 PM EST
Nautical Twilight 6:50 AM EST 6:45 PM EST
Astronomical Twilight 6:18 AM EST 7:17 PM EST
Moon 10:15 PM EST (1/20) 9:53 AM EST (1/20)
Length of Visible Light 10h 49m
Length of Day
9h 51m
Waning Gibbous, 83% of the Moon is Illuminated
Jan 20
Waning Gibbous
Jan 24
Last Quarter
Jan 30
New
Feb 6
First Quarter
Feb 14
Full

Hourly Weather History & Observations

Time (EST) Temp. Windchill Dew Point Humidity Pressure Visibility Wind Dir Wind Speed Gust Speed Precip Events Conditions
12:14 AM 37.4 °F 29.3 °F 26.6 °F 65% 29.76 in 10.0 mi SW 12.7 mph 19.6 mph N/A   Clear
12:33 AM 37.4 °F 29.8 °F 26.6 °F 65% 29.75 in 10.0 mi SW 11.5 mph 19.6 mph N/A   Clear
12:54 AM 37.4 °F 30.3 °F 26.6 °F 65% 29.73 in 10.0 mi SW 10.4 mph 19.6 mph N/A   Clear
1:14 AM 37.4 °F 30.3 °F 26.6 °F 65% 29.73 in 10.0 mi SW 10.4 mph 18.4 mph N/A   Clear
1:33 AM 37.4 °F 29.3 °F 24.8 °F 60% 29.72 in 10.0 mi SW 12.7 mph 19.6 mph N/A   Clear
1:54 AM 37.4 °F 28.5 °F 24.8 °F 60% 29.71 in 10.0 mi SW 15.0 mph 23.0 mph N/A   Clear
2:14 AM 37.4 °F 28.9 °F 24.8 °F 60% 29.70 in 10.0 mi SW 13.8 mph 23.0 mph N/A   Clear
2:33 AM 37.4 °F 28.5 °F 24.8 °F 60% 29.71 in 10.0 mi SW 15.0 mph 24.2 mph N/A   Clear
2:54 AM 37.4 °F 28.5 °F 24.8 °F 60% 29.71 in 10.0 mi SW 15.0 mph 24.2 mph N/A   Clear
3:14 AM 37.4 °F 28.2 °F 24.8 °F 60% 29.71 in 10.0 mi WSW 16.1 mph 25.3 mph N/A   Clear
3:33 AM 37.4 °F 28.9 °F 24.8 °F 60% 29.71 in 10.0 mi SW 13.8 mph - N/A   Clear
3:54 AM 37.4 °F 28.9 °F 24.8 °F 60% 29.71 in 10.0 mi SW 13.8 mph 19.6 mph N/A   Clear
4:14 AM 37.4 °F 28.5 °F 26.6 °F 65% 29.71 in 10.0 mi WSW 15.0 mph 21.9 mph N/A   Clear
4:33 AM 37.4 °F 29.8 °F 26.6 °F 65% 29.72 in 10.0 mi WSW 11.5 mph 16.1 mph N/A   Clear
4:54 AM 37.4 °F 29.8 °F 26.6 °F 65% 29.73 in 10.0 mi WSW 11.5 mph - N/A   Clear
5:14 AM 37.4 °F 31.4 °F 26.6 °F 65% 29.73 in 10.0 mi SW 8.1 mph - N/A   Clear
5:33 AM 37.4 °F 29.8 °F 26.6 °F 65% 29.74 in 10.0 mi SW 11.5 mph - N/A   Clear
5:54 AM 37.4 °F 31.4 °F 26.6 °F 65% 29.74 in 10.0 mi SW 8.1 mph - N/A   Clear
6:13 AM 35.6 °F 29.2 °F 26.6 °F 70% 29.75 in 10.0 mi WSW 8.1 mph - N/A   Clear
6:33 AM 35.6 °F 30.7 °F 26.6 °F 70% 29.76 in 10.0 mi SW 5.8 mph - N/A   Clear
6:54 AM 35.6 °F 30.7 °F 26.6 °F 70% 29.76 in 10.0 mi SW 5.8 mph - N/A   Clear
7:13 AM 35.6 °F 30.7 °F 26.6 °F 70% 29.77 in 10.0 mi SW 5.8 mph - N/A   Clear
7:33 AM 35.6 °F 29.9 °F 26.6 °F 70% 29.78 in 10.0 mi SW 6.9 mph - N/A   Clear
7:54 AM 33.8 °F 27.7 °F 26.6 °F 75% 29.79 in 10.0 mi WSW 6.9 mph - N/A   Clear
8:13 AM 33.8 °F 27.7 °F 26.6 °F 75% 29.80 in 10.0 mi WSW 6.9 mph - N/A   Scattered Clouds
8:33 AM 35.6 °F 29.9 °F 26.6 °F 70% 29.81 in 10.0 mi WSW 6.9 mph - N/A   Overcast
8:54 AM 35.6 °F 29.9 °F 28.4 °F 75% 29.82 in 10.0 mi West 6.9 mph - N/A   Overcast
9:13 AM 37.4 °F 30.8 °F 28.4 °F 70% 29.83 in 10.0 mi West 9.2 mph - N/A   Overcast
9:33 AM 37.4 °F 30.3 °F 28.4 °F 70% 29.84 in 10.0 mi West 10.4 mph - N/A   Overcast
9:54 AM 39.2 °F 32.5 °F 28.4 °F 65% 29.84 in 10.0 mi West 10.4 mph - N/A   Scattered Clouds
10:13 AM 39.2 °F 32.0 °F 28.4 °F 65% 29.85 in 10.0 mi West 11.5 mph 16.1 mph N/A   Clear
10:33 AM 41.0 °F 34.7 °F 30.2 °F 65% 29.86 in 10.0 mi West 10.4 mph - N/A   Scattered Clouds
10:54 AM 41.0 °F 34.7 °F 30.2 °F 65% 29.87 in 10.0 mi West 10.4 mph - N/A   Scattered Clouds
11:13 AM 41.0 °F 36.4 °F 30.2 °F 65% 29.87 in 10.0 mi WNW 6.9 mph - N/A   Scattered Clouds
11:33 AM 41.0 °F 34.3 °F 30.2 °F 65% 29.88 in 10.0 mi WNW 11.5 mph - N/A   Scattered Clouds
11:54 AM 41.0 °F 35.8 °F 30.2 °F 65% 29.88 in 10.0 mi NW 8.1 mph - N/A   Scattered Clouds
12:13 PM 41.0 °F 34.7 °F 30.2 °F 65% 29.88 in 10.0 mi WNW 10.4 mph - N/A   Scattered Clouds
12:34 PM 41.0 °F 35.2 °F 30.2 °F 65% 29.86 in 10.0 mi WNW 9.2 mph - N/A   Scattered Clouds
12:54 PM 42.8 °F 37.5 °F 30.2 °F 61% 29.85 in 10.0 mi WSW 9.2 mph - N/A   Scattered Clouds
1:13 PM 42.8 °F 37.5 °F 30.2 °F 61% 29.85 in 10.0 mi WNW 9.2 mph - N/A   Clear
1:34 PM 42.8 °F 37.0 °F 30.2 °F 61% 29.85 in 10.0 mi West 10.4 mph - N/A   Clear
1:54 PM 42.8 °F 37.0 °F 30.2 °F 61% 29.84 in 10.0 mi West 10.4 mph - N/A   Clear
2:13 PM 44.6 °F 39.7 °F 30.2 °F 57% 29.84 in 10.0 mi West 9.2 mph - N/A   Clear
2:34 PM 44.6 °F 39.7 °F 30.2 °F 57% 29.84 in 10.0 mi West 9.2 mph 16.1 mph N/A   Clear
2:54 PM 44.6 °F 39.2 °F 30.2 °F 57% 29.85 in 10.0 mi West 10.4 mph - N/A   Clear
3:13 PM 44.6 °F 40.2 °F 30.2 °F 57% 29.85 in 10.0 mi West 8.1 mph - N/A   Clear
3:34 PM 44.6 °F 39.2 °F 30.2 °F 57% 29.86 in 10.0 mi West 10.4 mph - N/A   Clear
3:54 PM 44.6 °F 39.7 °F 30.2 °F 57% 29.86 in 10.0 mi WNW 9.2 mph - N/A   Clear
4:13 PM 44.6 °F 40.7 °F 30.2 °F 57% 29.86 in 10.0 mi NNW 6.9 mph - N/A   Clear
4:34 PM 44.6 °F 40.2 °F 30.2 °F 57% 29.87 in 10.0 mi WNW 8.1 mph - N/A   Clear
4:53 PM 42.8 °F 38.0 °F 28.4 °F 57% 29.88 in 10.0 mi North 8.1 mph - N/A   Clear
5:14 PM 41.0 °F 34.7 °F 30.2 °F 65% 29.89 in 10.0 mi North 10.4 mph - N/A   Clear
5:34 PM 39.2 °F 33.6 °F 30.2 °F 70% 29.90 in 10.0 mi North 8.1 mph - N/A   Clear
5:54 PM 37.4 °F 31.4 °F 28.4 °F 70% 29.91 in 10.0 mi North 8.1 mph - N/A   Clear
6:14 PM 37.4 °F 32.1 °F 28.4 °F 70% 29.91 in 10.0 mi North 6.9 mph - N/A   Clear
6:34 PM 35.6 °F 31.7 °F 28.4 °F 75% 29.91 in 10.0 mi NNE 4.6 mph - N/A   Clear
6:53 PM 35.6 °F 31.7 °F 28.4 °F 75% 29.91 in 10.0 mi North 4.6 mph - N/A   Clear
7:14 PM 35.6 °F 30.7 °F 28.4 °F 75% 29.91 in 10.0 mi NE 5.8 mph - N/A   Scattered Clouds
7:34 PM 33.8 °F 29.6 °F 28.4 °F 81% 29.91 in 10.0 mi NE 4.6 mph - N/A   Overcast
7:53 PM 35.6 °F - 28.4 °F 75% 29.91 in 10.0 mi Calm Calm - N/A   Overcast
8:14 PM 35.6 °F - 28.4 °F 75% 29.90 in 10.0 mi Calm Calm - N/A   Scattered Clouds
8:34 PM 35.6 °F - 28.4 °F 75% 29.90 in 10.0 mi Calm Calm - N/A   Mostly Cloudy
8:53 PM 33.8 °F - 28.4 °F 81% 29.89 in 10.0 mi Calm Calm - N/A   Overcast
9:14 PM 35.6 °F - 28.4 °F 75% 29.89 in 10.0 mi Calm Calm - N/A   Overcast
9:34 PM 35.6 °F - 28.4 °F 75% 29.89 in 10.0 mi Calm Calm - N/A   Overcast
9:53 PM 33.8 °F - 28.4 °F 81% 29.88 in 10.0 mi Calm Calm - N/A   Overcast
10:14 PM 35.6 °F - 28.4 °F 75% 29.88 in 10.0 mi Calm Calm - N/A   Overcast
10:34 PM 35.6 °F - 28.4 °F 75% 29.88 in 10.0 mi Calm Calm - N/A   Overcast
10:53 PM 35.6 °F - 28.4 °F 75% 29.88 in 10.0 mi Calm Calm - N/A   Overcast
11:14 PM 35.6 °F - 28.4 °F 75% 29.88 in 10.0 mi Calm Calm - N/A   Overcast
11:34 PM 33.8 °F 30.8 °F 28.4 °F 81% 29.87 in 10.0 mi NNE 3.5 mph - N/A   Overcast
11:53 PM 33.8 °F 27.7 °F 30.2 °F 87% 29.87 in 5.0 mi NNE 6.9 mph - N/A Snow Light Snow